NOAA 16 DEB, 41529

Orbit data source: Space-Track

NOAA 16 DEB, 41529 is space debris in SSO originally from a launch on Thu, 21 Sep 2000 UTC launched from the Air Force Western Test Range (AFWTR). Debris objects in space refer to the collection of defunct objects orbiting the Earth. Examples of debris include non-operational satellites, rocket bodies, and fragments generated from explosions, collisions, or faulty payload assembly.

Loading next visibility...
Identifier
41529, 2000-055ND
Orbit
SSO
Country
Flag of USUS
Related business
Manufacturer
Unknown
Mission
Spacecraft
Bus & Motor
Unknown
Mass
Unknown
Launch date (UTC)
2000-09-21 (25 years ago)
Launch vehicle
Unknown
Launch site
Air Force Western Test Range (AFWTR)
Object type
Payload
Rocket body
Debris
Shape & HBR
Unknown shape, 0.1 m
Radar Cross Section
Small (<0.1 m²)

Expand to show TLE details & history
Last TLE update: 3 days ago

TLE from 3 days ago
0 NOAA 16 DEB
1 41529U 00055ND  25298.51805980  .00003944  00000-0  20418-2 0  9990
2 41529  98.7259 327.5767 0036327 222.4493 137.3870 14.15116911492494
Epoch: 2025-10-25T12:26Z
TLE epoch observation values (Epoch: 2025-10-25T12:26:00.366Z)
Latitude
-0.00003°
Longitude
106.92772°
Altitude
864.172 km
Speed
7.41 km/s
True Right ascension
21h 50m 18s
True Declination
0° 00' 00"
Sunlit
Object was in daylight at epoch
Visualization orbit readout
Latitude
Unknown
Longitude
Unknown
Altitude
Unknown
Speed
Unknown
Apparent Right ascension
Unknown
Apparent Declination
Unknown
Sunlit
N/A
Visualization observer readout
Local Sidereal Time
05:55:01
Azimuth
Unknown
Elevation
Unknown
Doppler factor
Unknown
Orbital elements
Apogee altitude
865.298 km
Perigee altitude
812.862 km
Semi-major axis
7,217.217 km
Eccentricity
0.00363
Inclination
98.7259°
RAAN
327.5767°
Arg. of periapsis
222.4493°
True anomaly
137.6679°
Mean anomaly
137.387°
Eccentric anomaly
137.52754°
Mean motion
3.53988 °/min
Orbital period
101.7 mins
BSTAR
0.0020418
Loading maneuver chart data...
Computing Atmospheric mass density...
Loading historical data...
Loading historical data...
Loading historical data...
Loading historical data...
Loading historical data...
Loading historical data...
Loading historical data...

Documentation

Showing up to 5 results
|